Eindhoven, Netherlands

3:00 PM CET on November 22, 2017 (GMT +0100)
Eindhoven Air Base

Weather History for EHEH - November, 2012

Change the Weather History Date:

Thursday, November 8, 2012

  Actual Average Record
Temperature  
Mean Temperature 50 °F -  
Max Temperature 53 °F 45 °F 64 °F (2005)
Min Temperature 46 °F 36 °F 30 °F (2016)
Degree Days  
Heating Degree Days 16    
Moisture  
Dew Point 45 °F    
Average Humidity 86    
Maximum Humidity 100    
Minimum Humidity 70    
Precipitation  
Precipitation 0.01 in - - ()
Sea Level Pressure  
Sea Level Pressure 30.09 in    
Wind  
Wind Speed 11 mph ()    
Max Wind Speed 15 mph    
Max Gust Speed -    
Visibility 6.5 miles    
Events Rain , Thunderstorm    
Averages and records for this station are not official NWS values.
T = Trace of Precipitation, MM = Missing Value Source: Averaged Metar Reports

Daily Weather History Graph

Daily Weather History Graph

Search for Another Location

Airport or City:

Trip Planner

Search our weather history database for the weather conditions in past years. The results will help you decide how hot, cold, wet, or windy it might be!

Date:

Astronomy

Nov. 08, 2012 Rise Set
Actual Time 7:44 AM CET 4:58 PM CET
Civil Twilight 7:08 AM CET 5:34 PM CET
Nautical Twilight 6:28 AM CET 6:14 PM CET
Astronomical Twilight 5:49 AM CET 6:53 PM CET
Moon 12:41 AM CET (11/8) 2:08 PM CET (11/8)
Length of Visible Light 10h 26m
Length of Day
9h 14m
Waning Crescent, 35% of the Moon is Illuminated
Nov 8
Waning Crescent
Nov 13
New
Nov 20
First Quarter
Nov 28
Full
Dec 6
Last Quarter

Hourly Weather History & Observations

Time (CET) Temp. Windchill Dew Point Humidity Pressure Visibility Wind Dir Wind Speed Gust Speed Precip Events Conditions
12:03 AM 50.0 °F - 44.6 °F 82% 30.18 in 6.2 mi SW 12.7 mph - N/A   Overcast
12:16 AM 50.0 °F - 44.6 °F 82% 30.18 in 6.2 mi SW 12.7 mph - N/A   Overcast
12:25 AM 50.0 °F - 44.6 °F 82% 30.18 in 6.2 mi SW 11.5 mph - N/A   Overcast
12:31 AM 50.0 °F - 44.6 °F 82% 30.18 in 6.2 mi SW 12.7 mph - N/A   Overcast
12:36 AM 50.0 °F - 44.6 °F 82% 30.18 in 6.2 mi SW 11.5 mph - N/A   Overcast
12:40 AM 50.0 °F - 44.6 °F 82% 30.18 in 6.2 mi SW 10.4 mph - N/A   Overcast
12:45 AM 50.0 °F - 44.6 °F 82% 30.18 in 6.2 mi SW 11.5 mph - N/A   Overcast
12:55 AM 50.0 °F - 44.6 °F 82% 30.18 in 6.2 mi SW 11.5 mph - N/A   Overcast
1:00 AM 49 °F - 45 °F 80% 30.19 in 12 mi SW 11.2 mph - -   Partly Cloudy
1:25 AM 50.0 °F - 44.6 °F 82% 30.18 in 6.2 mi SW 11.5 mph - N/A   Overcast
1:29 AM 50.0 °F - 44.6 °F 82% 30.15 in 6.2 mi SW 11.5 mph - N/A   Overcast
1:35 AM 50.0 °F - 44.6 °F 82% 30.15 in 6.2 mi SW 12.7 mph - N/A   Overcast
1:50 AM 50.0 °F - 44.6 °F 82% 30.15 in 6.2 mi SW 12.7 mph - N/A   Overcast
1:55 AM 50.0 °F - 44.6 °F 82% 30.15 in 6.2 mi SW 12.7 mph - N/A   Overcast
1:59 AM 50.0 °F - 44.6 °F 82% 30.15 in 6.2 mi SW 11.5 mph - N/A   Overcast
2:05 AM 50.0 °F - 44.6 °F 82% 30.15 in 6.2 mi SW 11.5 mph - N/A   Overcast
2:06 AM 50.0 °F - 44.6 °F 82% 30.15 in 6.2 mi WSW 10.4 mph - N/A   Overcast
2:13 AM 50.0 °F - 44.6 °F 82% 30.15 in 6.2 mi WSW 11.5 mph - N/A   Overcast
2:25 AM 50.0 °F - 44.6 °F 82% 30.15 in 6.2 mi SW 11.5 mph - N/A   Overcast
2:30 AM 50.0 °F - 44.6 °F 82% 30.15 in 6.2 mi SW 11.5 mph - N/A   Overcast
2:34 AM 50.0 °F - 44.6 °F 82% 30.15 in 6.2 mi SW 11.5 mph - N/A   Mostly Cloudy
2:41 AM 50.0 °F - 44.6 °F 82% 30.15 in 6.2 mi SW 12.7 mph - N/A   Overcast
2:55 AM 50.0 °F - 44.6 °F 82% 30.15 in 6.2 mi SW 12.7 mph - N/A   Overcast
3:00 AM 50.0 °F - 44.6 °F 82% 30.15 in 6.2 mi SW 12.7 mph - N/A   Overcast
3:10 AM 50.0 °F - 44.6 °F 82% 30.15 in 6.2 mi SW 12.7 mph - N/A   Overcast
3:14 AM 50.0 °F - 44.6 °F 82% 30.15 in 6.2 mi SW 12.7 mph - N/A   Overcast
3:25 AM 50.0 °F - 44.6 °F 82% 30.15 in 6.2 mi SW 11.5 mph - N/A   Overcast
3:55 AM 50.0 °F - 44.6 °F 82% 30.12 in 6.2 mi SW 12.7 mph - N/A   Overcast
4:00 AM 49 °F - 44 °F 79% 30.14 in 14 mi WSW 13.4 mph - -   Overcast
4:08 AM 50.0 °F - 44.6 °F 82% 30.12 in 6.2 mi SW 13.8 mph - N/A   Overcast
4:25 AM 50.0 °F - 44.6 °F 82% 30.12 in 6.2 mi SW 13.8 mph - N/A   Overcast
4:55 AM 48.2 °F - 44.6 °F 87% 30.12 in 6.2 mi SW 12.7 mph - N/A   Overcast
5:02 AM 48.2 °F - 44.6 °F 87% 30.12 in 6.2 mi SW 12.7 mph - N/A   Overcast
5:10 AM 48.2 °F - 44.6 °F 87% 30.12 in 6.2 mi SW 12.7 mph - N/A   Overcast
5:25 AM 50.0 °F - 44.6 °F 82% 30.09 in 6.2 mi SW 15.0 mph - N/A   Overcast
5:55 AM 48.2 °F - 44.6 °F 87% 30.09 in 6.2 mi SW 13.8 mph - N/A   Overcast
6:25 AM 48.2 °F - 44.6 °F 87% 30.09 in 6.2 mi SW 13.8 mph - N/A   Overcast
6:55 AM 48.2 °F - 44.6 °F 87% 30.09 in 6.2 mi SW 12.7 mph - N/A   Overcast
7:25 AM 48.2 °F - 44.6 °F 87% 30.09 in 6.2 mi SW 12.7 mph - N/A   Overcast
7:34 AM 48.2 °F - 44.6 °F 87% 30.09 in 6.2 mi SW 12.7 mph - N/A   Overcast
7:38 AM 48.2 °F - 44.6 °F 87% 30.09 in 6.2 mi SW 12.7 mph - N/A   Overcast
7:55 AM 48.2 °F - 44.6 °F 87% 30.09 in 6.2 mi SW 13.8 mph - N/A   Overcast
8:25 AM 48.2 °F - 44.6 °F 87% 30.09 in 6.2 mi SW 13.8 mph - N/A   Overcast
8:55 AM 50.0 °F - 44.6 °F 82% 30.09 in 6.2 mi SW 13.8 mph - N/A   Overcast
9:25 AM 50.0 °F - 44.6 °F 82% 30.09 in 6.2 mi SW 13.8 mph - N/A   Overcast
9:55 AM 50.0 °F - 44.6 °F 82% 30.09 in 6.2 mi SW 12.7 mph - N/A   Overcast
10:00 AM 49 °F - 45 °F 79% 30.10 in 11 mi SW 13.4 mph - -   Overcast
10:16 AM 50.0 °F - 44.6 °F 82% 30.06 in 6.2 mi SW 13.8 mph - N/A Thunderstorm Thunderstorm
10:25 AM 50.0 °F - 44.6 °F 82% 30.06 in 6.2 mi SW 13.8 mph - N/A Thunderstorm Thunderstorm
10:55 AM 50.0 °F - 44.6 °F 82% 30.06 in 6.2 mi SW 15.0 mph - N/A   Overcast
11:25 AM 50.0 °F - 44.6 °F 82% 30.09 in 6.2 mi SW 15.0 mph - N/A   Overcast
11:55 AM 50.0 °F - 46.4 °F 87% 30.06 in 6.2 mi SW 13.8 mph - N/A   Overcast
12:25 PM 51.8 °F - 46.4 °F 82% 30.06 in 6.2 mi SW 13.8 mph - N/A   Overcast
12:55 PM 51.8 °F - 46.4 °F 82% 30.06 in 6.2 mi SW 15.0 mph - N/A   Overcast
1:00 PM 54 °F - 47 °F 70% 30.06 in 14 mi SW 13.4 mph - -   Partly Cloudy
1:25 PM 51.8 °F - 44.6 °F 76% 30.04 in 6.2 mi SW 15.0 mph - N/A   Overcast
1:55 PM 51.8 °F - 46.4 °F 82% 30.04 in 6.2 mi SW 12.7 mph - N/A   Overcast
2:05 PM 51.8 °F - 46.4 °F 82% 30.04 in 6.2 mi SW 13.8 mph - N/A   Mostly Cloudy
2:09 PM 51.8 °F - 46.4 °F 82% 30.04 in 6.2 mi SW 13.8 mph - N/A   Mostly Cloudy
2:20 PM 51.8 °F - 46.4 °F 82% 30.04 in 3.1 mi SW 13.8 mph - N/A   Haze
2:25 PM 50.0 °F - 46.4 °F 87% 30.04 in 6.2 mi SW 13.8 mph - N/A Rain Drizzle
2:29 PM 50.0 °F - 46.4 °F 87% 30.04 in - SW 12.7 mph - N/A   Drizzle
2:33 PM 50.0 °F - 46.4 °F 87% 30.04 in 3.7 mi SW 12.7 mph - N/A   Drizzle
2:43 PM 50.0 °F - 46.4 °F 87% 30.04 in 6.2 mi SW 10.4 mph - N/A   Overcast
2:55 PM 51.8 °F - 46.4 °F 82% 30.04 in 6.2 mi WSW 9.2 mph - N/A   Overcast
3:25 PM 51.8 °F - 46.4 °F 82% 30.04 in 6.2 mi WSW 11.5 mph - N/A   Overcast
3:55 PM 50.0 °F - 46.4 °F 87% 30.04 in 6.2 mi SW 12.7 mph - N/A   Mostly Cloudy
4:00 PM 51 °F - 46 °F 77% 30.04 in 13 mi SW 11.2 mph - -   Partly Cloudy
4:19 PM 50.0 °F - 46.4 °F 87% 30.04 in 6.2 mi SW 9.2 mph - N/A Rain Light Rain
4:25 PM 50.0 °F - 46.4 °F 87% 30.04 in 6.2 mi SW 9.2 mph - N/A   Light Drizzle
4:29 PM 50.0 °F - 46.4 °F 87% 30.04 in 6.2 mi SW 8.1 mph - N/A   Light Drizzle
4:55 PM 50.0 °F - 46.4 °F 87% 30.04 in 6.2 mi SW 8.1 mph - N/A   Drizzle
5:25 PM 50.0 °F - 46.4 °F 87% 30.04 in 6.2 mi WNW 5.8 mph - N/A Rain Light Rain
5:32 PM 50.0 °F - 46.4 °F 87% 30.04 in 6.2 mi WSW 4.6 mph - N/A Rain Drizzle
5:36 PM 50.0 °F - 46.4 °F 87% 30.04 in 6.2 mi WSW 5.8 mph - N/A Rain Light Rain
5:55 PM 50.0 °F - 46.4 °F 87% 30.04 in 6.2 mi SW 8.1 mph - N/A Rain Light Rain
6:04 PM 50.0 °F - 46.4 °F 87% 30.04 in 6.2 mi WSW 8.1 mph - N/A   Mostly Cloudy
6:07 PM 48.2 °F - 46.4 °F 93% 30.04 in 6.2 mi SW 8.1 mph - N/A   Mostly Cloudy
6:14 PM 48.2 °F - 46.4 °F 93% 30.04 in 6.2 mi SW 8.1 mph - N/A   Overcast
6:20 PM 48.2 °F - 46.4 °F 93% 30.04 in 6.2 mi SW 6.9 mph - N/A   Overcast
6:25 PM 48.2 °F - 46.4 °F 93% 30.04 in 6.2 mi SW 6.9 mph - N/A   Overcast
6:32 PM 48.2 °F - 46.4 °F 93% 30.04 in 6.2 mi SW 5.8 mph - N/A   Mostly Cloudy
6:40 PM 46.4 °F 42.9 °F 44.6 °F 93% 30.04 in 6.2 mi SW 6.9 mph - N/A   Mostly Cloudy
6:44 PM 46.4 °F 42.9 °F 44.6 °F 93% 30.04 in 6.2 mi SW 6.9 mph - N/A   Mostly Cloudy
6:48 PM 46.4 °F 42.9 °F 46.4 °F 100% 30.04 in 6.2 mi SW 6.9 mph - N/A   Mostly Cloudy
6:55 PM 46.4 °F 42.9 °F 46.4 °F 100% 30.04 in 6.2 mi SW 6.9 mph - N/A   Mostly Cloudy
7:00 PM 47 °F - 46 °F 96% 30.05 in 7 mi SW 6.7 mph - -   Partly Cloudy
7:08 PM 46.4 °F 42.4 °F 46.4 °F 100% 30.04 in 6.2 mi SW 8.1 mph - N/A   Mostly Cloudy
7:12 PM 46.4 °F 42.9 °F 46.4 °F 100% 30.04 in 6.2 mi SW 6.9 mph - N/A   Overcast
7:17 PM 46.4 °F 42.4 °F 46.4 °F 100% 30.04 in 6.2 mi SW 8.1 mph - N/A   Mostly Cloudy
7:25 PM 48.2 °F - 46.4 °F 93% 30.04 in 6.2 mi SW 8.1 mph - N/A   Mostly Cloudy
7:26 PM 48.2 °F - 46.4 °F 93% 30.04 in 6.2 mi SW 8.1 mph - N/A   Mostly Cloudy
7:55 PM 48.2 °F - 46.4 °F 93% 30.04 in 6.2 mi WSW 6.9 mph - N/A   Overcast
8:25 PM 48.2 °F - 46.4 °F 93% 30.04 in 6.2 mi SW 8.1 mph - N/A   Overcast
8:55 PM 48.2 °F - 46.4 °F 93% 30.04 in 6.2 mi SW 8.1 mph - N/A   Overcast
9:25 PM 48.2 °F - 46.4 °F 93% 30.04 in 6.2 mi SW 9.2 mph - N/A   Overcast
9:55 PM 48.2 °F - 46.4 °F 93% 30.04 in 6.2 mi SSW 9.2 mph - N/A   Overcast
10:00 PM 48 °F - 46 °F 91% 30.06 in 7 mi SSW 8.9 mph - -   Overcast
10:25 PM 48.2 °F - 46.4 °F 93% 30.04 in 6.2 mi SSW 11.5 mph - N/A   Overcast
10:26 PM 48.2 °F - 46.4 °F 93% 30.04 in 6.2 mi SSW 10.4 mph - N/A   Overcast
10:55 PM 48.2 °F - 46.4 °F 93% 30.04 in 6.2 mi SW 9.2 mph - N/A   Overcast
11:25 PM 48.2 °F - 46.4 °F 93% 30.04 in 6.2 mi SW 9.2 mph - N/A   Overcast
11:55 PM 48.2 °F - 46.4 °F 93% 30.04 in 6.2 mi SW 9.2 mph - N/A   Overcast